Tracking 19170 objects as of 23-May-2018
HD Live streaming from Space Station
objects crossing your sky now

LATINSAT A

Track LATINSAT A now!
10-day predictions
LATINSAT A is classified as:


NORAD ID: 27612
Int'l Code: 2002-058H
Perigee: 602.6 km
Apogee: 674.5 km
Inclination: 64.6 °
Period: 97.3 minutes
Semi major axis: 7009 km
RCS: 0.0297 m2 (small)
Launch date: December 20, 2002
Source: Argentina (ARGN)
Launch site: TYURATAM MISSILE AND SPACE COMPLEX (TTMTR)

Nanosatellite; planned constellation of 48 satellites, little LEO; asset tracking and monitoring services.
aabbcc
Your satellite tracking list
Your tracking list is empty




NASA's NSSDC Master Catalog

Two Line Element Set (TLE):
1 27612U 02058H   18143.21709281 -.00000042  00000-0  13994-4 0  9997
2 27612  64.5569  48.4518 0051300 306.4590  53.1791 14.79339974831454
Source of the keplerian elements: AFSPC